Information on these data can be found in provided Readme document
Contact Info: Zachary Fasnacht (zachary.fasnacht@ssaihq.com); Nickolay Krotkov (nickolay.a.krotkov@nasa.gov); Lok Lamsal (lok.lamsal@nasa.gov)

FillValue: -999.
ScaleFactor: 1e15
Units: molecules/cm^2

Date(yyyy-mm-dd),City,Country,LonCenter,LatCenter,BoundingCoordinates,Median,Q1,Q3,Mean,Baseline_Median,Baseline_Q1,Baseline_Q3,Baseline_Mean,NumGoodSamples,NumTotalSamples
2015-01-01,Adelaide,Australia,138.6001,-34.9167,[138.1001 -35.4167 139.1001 -34.4167],0.769,0.324,1.287,0.836,0.847,0.371,1.341,0.888,253.0,578.0
2015-01-02,Adelaide,Australia,138.6001,-34.9167,[138.1001 -35.4167 139.1001 -34.4167],0.756,0.32,1.266,0.815,0.817,0.371,1.3,0.867,243.0,582.0
2015-01-03,Adelaide,Australia,138.6001,-34.9167,[138.1001 -35.4167 139.1001 -34.4167],0.772,0.32,1.267,0.825,0.818,0.367,1.324,0.876,217.0,587.0
2015-01-04,Adelaide,Australia,138.6001,-34.9167,[138.1001 -35.4167 139.1001 -34.4167],0.776,0.308,1.267,0.836,0.839,0.377,1.36,0.893,223.0,588.0
2015-01-05,Adelaide,Australia,138.6001,-34.9167,[138.1001 -35.4167 139.1001 -34.4167],0.785,0.375,1.287,0.9,0.8,0.377,1.279,0.867,198.0,591.0
2015-01-06,Adelaide,Australia,138.6001,-34.9167,[138.1001 -35.4167 139.1001 -34.4167],0.785,0.375,1.287,0.899,0.793,0.387,1.275,0.867,201.0,578.0
2015-01-07,Adelaide,Australia,138.6001,-34.9167,[138.1001 -35.4167 139.1001 -34.4167],0.95,0.56,1.502,1.041,0.822,0.405,1.283,0.872,171.0,582.0
2015-01-08,Adelaide,Australia,138.6001,-34.9167,[138.1001 -35.4167 139.1001 -34.4167],0.919,0.438,1.49,0.977,0.851,0.398,1.34,0.894,203.0,576.0
2015-01-09,Adelaide,Australia,138.6001,-34.9167,[138.1001 -35.4167 139.1001 -34.4167],0.922,0.397,1.716,1.015,0.853,0.409,1.382,0.91,163.0,576.0
2015-01-10,Adelaide,Australia,138.6001,-34.9167,[138.1001 -35.4167 139.1001 -34.4167],0.944,0.477,1.716,1.06,0.855,0.424,1.417,0.921,134.0,537.0
2015-01-11,Adelaide,Australia,138.6001,-34.9167,[138.1001 -35.4167 139.1001 -34.4167],0.919,0.477,1.716,1.018,0.865,0.403,1.418,0.914,163.0,546.0
2015-01-12,Adelaide,Australia,138.6001,-34.9167,[138.1001 -35.4167 139.1001 -34.4167],0.922,0.477,1.524,1.002,0.853,0.374,1.395,0.898,160.0,543.0
2015-01-13,Adelaide,Australia,138.6001,-34.9167,[138.1001 -35.4167 139.1001 -34.4167],0.919,0.487,1.559,1.012,0.853,0.38,1.375,0.888,154.0,534.0
2015-01-14,Adelaide,Australia,138.6001,-34.9167,[138.1001 -35.4167 139.1001 -34.4167],0.684,0.211,1.394,0.833,0.791,0.32,1.323,0.836,134.0,536.0
2015-01-15,Adelaide,Australia,138.6001,-34.9167,[138.1001 -35.4167 139.1001 -34.4167],0.75,0.255,1.276,0.815,0.793,0.328,1.306,0.842,164.0,530.0
2015-01-16,Adelaide,Australia,138.6001,-34.9167,[138.1001 -35.4167 139.1001 -34.4167],0.75,0.239,1.272,0.812,0.806,0.335,1.345,0.862,162.0,531.0
2015-01-17,Adelaide,Australia,138.6001,-34.9167,[138.1001 -35.4167 139.1001 -34.4167],0.641,0.211,1.134,0.736,0.799,0.351,1.349,0.863,201.0,531.0
2015-01-18,Adelaide,Australia,138.6001,-34.9167,[138.1001 -35.4167 139.1001 -34.4167],0.636,0.211,1.133,0.718,0.804,0.366,1.351,0.866,233.0,535.0
2015-01-19,Adelaide,Australia,138.6001,-34.9167,[138.1001 -35.4167 139.1001 -34.4167],0.636,0.231,1.131,0.697,0.793,0.331,1.341,0.853,217.0,540.0
2015-01-20,Adelaide,Australia,138.6001,-34.9167,[138.1001 -35.4167 139.1001 -34.4167],0.64,0.231,1.131,0.688,0.775,0.318,1.331,0.845,239.0,541.0
2015-01-21,Adelaide,Australia,138.6001,-34.9167,[138.1001 -35.4167 139.1001 -34.4167],0.641,0.231,1.134,0.703,0.776,0.321,1.342,0.851,256.0,544.0
2015-01-22,Adelaide,Australia,138.6001,-34.9167,[138.1001 -35.4167 139.1001 -34.4167],0.683,0.239,1.152,0.75,0.782,0.332,1.348,0.862,281.0,531.0
2015-01-23,Adelaide,Australia,138.6001,-34.9167,[138.1001 -35.4167 139.1001 -34.4167],0.716,0.255,1.134,0.746,0.78,0.33,1.32,0.849,249.0,535.0
2015-01-24,Adelaide,Australia,138.6001,-34.9167,[138.1001 -35.4167 139.1001 -34.4167],0.683,0.203,1.134,0.716,0.766,0.283,1.297,0.825,264.0,529.0
2015-01-25,Adelaide,Australia,138.6001,-34.9167,[138.1001 -35.4167 139.1001 -34.4167],0.683,0.203,1.134,0.716,0.762,0.293,1.3,0.835,264.0,576.0
2015-01-26,Adelaide,Australia,138.6001,-34.9167,[138.1001 -35.4167 139.1001 -34.4167],0.717,0.239,1.199,0.772,0.777,0.328,1.313,0.862,275.0,584.0
2015-01-27,Adelaide,Australia,138.6001,-34.9167,[138.1001 -35.4167 139.1001 -34.4167],0.716,0.231,1.16,0.76,0.785,0.333,1.298,0.862,281.0,597.0
2015-01-28,Adelaide,Australia,138.6001,-34.9167,[138.1001 -35.4167 139.1001 -34.4167],0.716,0.239,1.162,0.766,0.78,0.313,1.311,0.86,297.0,597.0
2015-01-29,Adelaide,Australia,138.6001,-34.9167,[138.1001 -35.4167 139.1001 -34.4167],0.738,0.255,1.199,0.796,0.804,0.341,1.327,0.888,308.0,589.0
2015-01-30,Adelaide,Australia,138.6001,-34.9167,[138.1001 -35.4167 139.1001 -34.4167],0.725,0.253,1.275,0.825,0.799,0.336,1.354,0.901,292.0,589.0
2015-01-31,Adelaide,Australia,138.6001,-34.9167,[138.1001 -35.4167 139.1001 -34.4167],0.747,0.321,1.275,0.852,0.784,0.333,1.316,0.883,317.0,582.0
2015-02-01,Adelaide,Australia,138.6001,-34.9167,[138.1001 -35.4167 139.1001 -34.4167],0.845,0.399,1.405,0.924,0.835,0.35,1.361,0.917,278.0,584.0
2015-02-02,Adelaide,Australia,138.6001,-34.9167,[138.1001 -35.4167 139.1001 -34.4167],0.943,0.426,1.47,0.957,0.857,0.371,1.394,0.933,285.0,582.0
2015-02-03,Adelaide,Australia,138.6001,-34.9167,[138.1001 -35.4167 139.1001 -34.4167],0.945,0.399,1.483,0.981,0.888,0.393,1.433,0.965,307.0,586.0
2015-02-04,Adelaide,Australia,138.6001,-34.9167,[138.1001 -35.4167 139.1001 -34.4167],0.954,0.456,1.566,1.018,0.929,0.408,1.461,0.984,290.0,590.0
2015-02-05,Adelaide,Australia,138.6001,-34.9167,[138.1001 -35.4167 139.1001 -34.4167],0.963,0.456,1.602,1.039,0.941,0.422,1.462,0.987,294.0,592.0
2015-02-06,Adelaide,Australia,138.6001,-34.9167,[138.1001 -35.4167 139.1001 -34.4167],0.974,0.456,1.578,1.022,0.943,0.41,1.468,0.979,269.0,596.0
2015-02-07,Adelaide,Australia,138.6001,-34.9167,[138.1001 -35.4167 139.1001 -34.4167],0.961,0.417,1.566,1.004,0.948,0.412,1.47,0.983,288.0,584.0
2015-02-08,Adelaide,Australia,138.6001,-34.9167,[138.1001 -35.4167 139.1001 -34.4167],0.974,0.499,1.578,1.059,0.962,0.439,1.493,1.02,273.0,590.0
2015-02-09,Adelaide,Australia,138.6001,-34.9167,[138.1001 -35.4167 139.1001 -34.4167],0.974,0.443,1.602,1.055,0.954,0.44,1.495,1.01,305.0,583.0
2015-02-10,Adelaide,Australia,138.6001,-34.9167,[138.1001 -35.4167 139.1001 -34.4167],0.969,0.441,1.578,1.068,0.954,0.42,1.488,1.009,265.0,582.0
2015-02-11,Adelaide,Australia,138.6001,-34.9167,[138.1001 -35.4167 139.1001 -34.4167],0.978,0.459,1.568,1.076,0.961,0.435,1.487,1.015,237.0,541.0
2015-02-12,Adelaide,Australia,138.6001,-34.9167,[138.1001 -35.4167 139.1001 -34.4167],1.003,0.429,1.727,1.13,0.976,0.436,1.53,1.043,246.0,552.0
2015-02-13,Adelaide,Australia,138.6001,-34.9167,[138.1001 -35.4167 139.1001 -34.4167],1.002,0.417,1.648,1.123,0.955,0.423,1.501,1.023,239.0,550.0
2015-02-14,Adelaide,Australia,138.6001,-34.9167,[138.1001 -35.4167 139.1001 -34.4167],0.945,0.413,1.648,1.096,0.958,0.456,1.494,1.027,236.0,543.0
2015-02-15,Adelaide,Australia,138.6001,-34.9167,[138.1001 -35.4167 139.1001 -34.4167],1.002,0.332,1.845,1.162,0.992,0.447,1.541,1.056,215.0,544.0
2015-02-16,Adelaide,Australia,138.6001,-34.9167,[138.1001 -35.4167 139.1001 -34.4167],0.949,0.332,1.727,1.125,0.969,0.433,1.523,1.035,238.0,537.0
2015-02-17,Adelaide,Australia,138.6001,-34.9167,[138.1001 -35.4167 139.1001 -34.4167],0.958,0.322,1.727,1.167,0.964,0.437,1.513,1.038,199.0,540.0
2015-02-18,Adelaide,Australia,138.6001,-34.9167,[138.1001 -35.4167 139.1001 -34.4167],0.911,0.403,1.572,1.081,0.932,0.437,1.49,1.015,207.0,539.0
2015-02-19,Adelaide,Australia,138.6001,-34.9167,[138.1001 -35.4167 139.1001 -34.4167],0.911,0.383,1.568,1.093,0.979,0.471,1.55,1.056,235.0,542.0
2015-02-20,Adelaide,Australia,138.6001,-34.9167,[138.1001 -35.4167 139.1001 -34.4167],0.972,0.413,1.572,1.12,0.996,0.474,1.613,1.091,222.0,546.0
2015-02-21,Adelaide,Australia,138.6001,-34.9167,[138.1001 -35.4167 139.1001 -34.4167],0.972,0.404,1.572,1.106,1.022,0.46,1.639,1.089,228.0,549.0
2015-02-22,Adelaide,Australia,138.6001,-34.9167,[138.1001 -35.4167 139.1001 -34.4167],0.972,0.413,1.572,1.105,1.008,0.434,1.65,1.09,229.0,551.0
2015-02-23,Adelaide,Australia,138.6001,-34.9167,[138.1001 -35.4167 139.1001 -34.4167],0.972,0.413,1.572,1.105,0.977,0.41,1.622,1.059,229.0,536.0
2015-02-24,Adelaide,Australia,138.6001,-34.9167,[138.1001 -35.4167 139.1001 -34.4167],0.972,0.496,1.572,1.125,0.982,0.421,1.592,1.057,197.0,540.0
2015-02-25,Adelaide,Australia,138.6001,-34.9167,[138.1001 -35.4167 139.1001 -34.4167],0.89,0.452,1.415,1.023,0.966,0.428,1.567,1.048,231.0,532.0
2015-02-26,Adelaide,Australia,138.6001,-34.9167,[138.1001 -35.4167 139.1001 -34.4167],0.89,0.452,1.415,1.023,0.953,0.388,1.563,1.026,231.0,580.0
2015-02-27,Adelaide,Australia,138.6001,-34.9167,[138.1001 -35.4167 139.1001 -34.4167],0.802,0.404,1.307,0.927,0.92,0.382,1.534,1.002,238.0,587.0
2015-02-28,Adelaide,Australia,138.6001,-34.9167,[138.1001 -35.4167 139.1001 -34.4167],0.777,0.374,1.262,0.887,0.919,0.399,1.532,1.004,251.0,596.0
2015-03-01,Adelaide,Australia,138.6001,-34.9167,[138.1001 -35.4167 139.1001 -34.4167],0.777,0.374,1.304,0.878,0.909,0.363,1.511,0.988,262.0,593.0
2015-03-02,Adelaide,Australia,138.6001,-34.9167,[138.1001 -35.4167 139.1001 -34.4167],0.777,0.378,1.255,0.853,0.913,0.358,1.513,0.985,267.0,584.0
2015-03-03,Adelaide,Australia,138.6001,-34.9167,[138.1001 -35.4167 139.1001 -34.4167],0.79,0.374,1.238,0.847,0.927,0.359,1.527,0.994,257.0,585.0
2015-03-04,Adelaide,Australia,138.6001,-34.9167,[138.1001 -35.4167 139.1001 -34.4167],0.798,0.444,1.214,0.845,0.908,0.372,1.484,0.974,289.0,575.0
2015-03-05,Adelaide,Australia,138.6001,-34.9167,[138.1001 -35.4167 139.1001 -34.4167],0.777,0.374,1.214,0.839,0.883,0.334,1.471,0.952,249.0,576.0
2015-03-06,Adelaide,Australia,138.6001,-34.9167,[138.1001 -35.4167 139.1001 -34.4167],0.777,0.326,1.214,0.808,0.823,0.298,1.399,0.898,256.0,575.0
2015-03-07,Adelaide,Australia,138.6001,-34.9167,[138.1001 -35.4167 139.1001 -34.4167],0.748,0.304,1.171,0.759,0.789,0.282,1.338,0.844,276.0,578.0
2015-03-08,Adelaide,Australia,138.6001,-34.9167,[138.1001 -35.4167 139.1001 -34.4167],0.748,0.35,1.194,0.785,0.791,0.309,1.346,0.868,280.0,581.0
2015-03-09,Adelaide,Australia,138.6001,-34.9167,[138.1001 -35.4167 139.1001 -34.4167],0.777,0.374,1.214,0.813,0.787,0.302,1.335,0.866,276.0,584.0
2015-03-10,Adelaide,Australia,138.6001,-34.9167,[138.1001 -35.4167 139.1001 -34.4167],0.775,0.374,1.214,0.81,0.84,0.338,1.373,0.895,278.0,586.0
2015-03-11,Adelaide,Australia,138.6001,-34.9167,[138.1001 -35.4167 139.1001 -34.4167],0.775,0.374,1.253,0.821,0.831,0.332,1.363,0.885,303.0,571.0
2015-03-12,Adelaide,Australia,138.6001,-34.9167,[138.1001 -35.4167 139.1001 -34.4167],0.798,0.391,1.288,0.848,0.823,0.326,1.353,0.87,269.0,576.0
2015-03-13,Adelaide,Australia,138.6001,-34.9167,[138.1001 -35.4167 139.1001 -34.4167],0.806,0.378,1.35,0.875,0.86,0.337,1.423,0.907,297.0,568.0
2015-03-14,Adelaide,Australia,138.6001,-34.9167,[138.1001 -35.4167 139.1001 -34.4167],0.867,0.378,1.374,0.9,0.872,0.325,1.399,0.902,258.0,568.0
2015-03-15,Adelaide,Australia,138.6001,-34.9167,[138.1001 -35.4167 139.1001 -34.4167],0.884,0.416,1.377,0.938,0.901,0.332,1.401,0.922,228.0,529.0
2015-03-16,Adelaide,Australia,138.6001,-34.9167,[138.1001 -35.4167 139.1001 -34.4167],0.884,0.416,1.377,0.949,0.897,0.343,1.381,0.919,222.0,540.0
2015-03-17,Adelaide,Australia,138.6001,-34.9167,[138.1001 -35.4167 139.1001 -34.4167],0.871,0.408,1.377,0.938,0.872,0.337,1.36,0.906,218.0,539.0
2015-03-18,Adelaide,Australia,138.6001,-34.9167,[138.1001 -35.4167 139.1001 -34.4167],0.856,0.365,1.372,0.903,0.859,0.319,1.362,0.893,221.0,530.0
2015-03-19,Adelaide,Australia,138.6001,-34.9167,[138.1001 -35.4167 139.1001 -34.4167],0.821,0.31,1.447,0.923,0.879,0.318,1.385,0.907,190.0,535.0
2015-03-20,Adelaide,Australia,138.6001,-34.9167,[138.1001 -35.4167 139.1001 -34.4167],0.856,0.321,1.444,0.925,0.897,0.331,1.434,0.922,195.0,528.0
2015-03-21,Adelaide,Australia,138.6001,-34.9167,[138.1001 -35.4167 139.1001 -34.4167],0.86,0.365,1.444,0.944,0.873,0.336,1.405,0.913,155.0,531.0
2015-03-22,Adelaide,Australia,138.6001,-34.9167,[138.1001 -35.4167 139.1001 -34.4167],0.915,0.408,1.444,0.964,0.882,0.341,1.406,0.925,125.0,532.0
2015-03-23,Adelaide,Australia,138.6001,-34.9167,[138.1001 -35.4167 139.1001 -34.4167],0.915,0.359,1.447,1.037,0.861,0.351,1.357,0.907,149.0,534.0
2015-03-24,Adelaide,Australia,138.6001,-34.9167,[138.1001 -35.4167 139.1001 -34.4167],0.86,0.365,1.374,0.985,0.886,0.386,1.368,0.918,156.0,537.0
2015-03-25,Adelaide,Australia,138.6001,-34.9167,[138.1001 -35.4167 139.1001 -34.4167],0.86,0.365,1.374,0.994,0.82,0.332,1.371,0.891,154.0,541.0
2015-03-26,Adelaide,Australia,138.6001,-34.9167,[138.1001 -35.4167 139.1001 -34.4167],0.915,0.365,1.377,1.043,0.84,0.336,1.415,0.897,148.0,545.0
2015-03-27,Adelaide,Australia,138.6001,-34.9167,[138.1001 -35.4167 139.1001 -34.4167],0.823,0.266,1.337,0.882,0.84,0.335,1.429,0.885,175.0,532.0
2015-03-28,Adelaide,Australia,138.6001,-34.9167,[138.1001 -35.4167 139.1001 -34.4167],0.665,0.179,1.289,0.811,0.856,0.371,1.5,0.943,147.0,535.0
2015-03-29,Adelaide,Australia,138.6001,-34.9167,[138.1001 -35.4167 139.1001 -34.4167],0.665,0.179,1.289,0.811,0.866,0.362,1.517,0.952,147.0,528.0
2015-03-30,Adelaide,Australia,138.6001,-34.9167,[138.1001 -35.4167 139.1001 -34.4167],0.665,0.179,1.289,0.811,0.856,0.352,1.557,0.952,147.0,574.0
2015-03-31,Adelaide,Australia,138.6001,-34.9167,[138.1001 -35.4167 139.1001 -34.4167],0.665,0.179,1.27,0.812,0.84,0.298,1.574,0.936,131.0,582.0
2015-04-01,Adelaide,Australia,138.6001,-34.9167,[138.1001 -35.4167 139.1001 -34.4167],0.682,0.179,1.289,0.858,0.834,0.289,1.563,0.93,155.0,593.0
2015-04-02,Adelaide,Australia,138.6001,-34.9167,[138.1001 -35.4167 139.1001 -34.4167],0.87,0.301,1.461,1.065,0.85,0.321,1.61,0.964,151.0,592.0
2015-04-03,Adelaide,Australia,138.6001,-34.9167,[138.1001 -35.4167 139.1001 -34.4167],0.915,0.301,1.648,1.153,0.864,0.293,1.63,0.981,177.0,583.0
2015-04-04,Adelaide,Australia,138.6001,-34.9167,[138.1001 -35.4167 139.1001 -34.4167],1.0,0.301,1.789,1.212,0.872,0.29,1.624,0.982,183.0,585.0
2015-04-05,Adelaide,Australia,138.6001,-34.9167,[138.1001 -35.4167 139.1001 -34.4167],1.0,0.301,1.785,1.209,0.963,0.326,1.703,1.039,185.0,578.0
2015-04-06,Adelaide,Australia,138.6001,-34.9167,[138.1001 -35.4167 139.1001 -34.4167],1.0,0.301,1.789,1.208,0.977,0.325,1.701,1.063,184.0,581.0
2015-04-07,Adelaide,Australia,138.6001,-34.9167,[138.1001 -35.4167 139.1001 -34.4167],0.77,0.164,1.433,0.983,0.919,0.243,1.679,1.029,171.0,581.0
2015-04-08,Adelaide,Australia,138.6001,-34.9167,[138.1001 -35.4167 139.1001 -34.4167],0.774,0.155,1.621,1.023,0.938,0.276,1.727,1.047,181.0,583.0
2015-04-09,Adelaide,Australia,138.6001,-34.9167,[138.1001 -35.4167 139.1001 -34.4167],0.774,0.155,1.621,1.023,0.996,0.312,1.722,1.054,181.0,586.0
2015-04-10,Adelaide,Australia,138.6001,-34.9167,[138.1001 -35.4167 139.1001 -34.4167],0.77,0.14,1.516,0.989,0.999,0.359,1.706,1.073,162.0,590.0
2015-04-11,Adelaide,Australia,138.6001,-34.9167,[138.1001 -35.4167 139.1001 -34.4167],1.011,0.239,1.854,1.217,1.036,0.409,1.76,1.112,138.0,593.0
2015-04-12,Adelaide,Australia,138.6001,-34.9167,[138.1001 -35.4167 139.1001 -34.4167],0.922,0.348,1.785,1.145,1.002,0.369,1.676,1.036,162.0,580.0
2015-04-13,Adelaide,Australia,138.6001,-34.9167,[138.1001 -35.4167 139.1001 -34.4167],0.922,0.348,1.785,1.145,0.962,0.351,1.683,1.039,162.0,584.0
2015-04-14,Adelaide,Australia,138.6001,-34.9167,[138.1001 -35.4167 139.1001 -34.4167],1.004,0.362,1.576,1.124,0.954,0.335,1.629,1.021,196.0,576.0
2015-04-15,Adelaide,Australia,138.6001,-34.9167,[138.1001 -35.4167 139.1001 -34.4167],1.004,0.362,1.576,1.124,0.935,0.3,1.604,1.017,196.0,575.0
2015-04-16,Adelaide,Australia,138.6001,-34.9167,[138.1001 -35.4167 139.1001 -34.4167],1.004,0.361,1.576,1.122,0.916,0.317,1.583,1.009,167.0,536.0
2015-04-17,Adelaide,Australia,138.6001,-34.9167,[138.1001 -35.4167 139.1001 -34.4167],0.925,0.357,1.516,1.037,0.895,0.319,1.565,0.996,155.0,507.0
2015-04-18,Adelaide,Australia,138.6001,-34.9167,[138.1001 -35.4167 139.1001 -34.4167],0.85,0.357,1.343,0.94,0.842,0.297,1.499,0.944,131.0,505.0
2015-04-19,Adelaide,Australia,138.6001,-34.9167,[138.1001 -35.4167 139.1001 -34.4167],0.813,0.336,1.29,0.881,0.848,0.324,1.501,0.954,120.0,498.0
2015-04-20,Adelaide,Australia,138.6001,-34.9167,[138.1001 -35.4167 139.1001 -34.4167],0.846,0.345,1.29,0.897,0.814,0.274,1.478,0.929,119.0,497.0
2015-04-21,Adelaide,Australia,138.6001,-34.9167,[138.1001 -35.4167 139.1001 -34.4167],0.838,0.345,1.29,0.903,0.779,0.265,1.442,0.883,124.0,485.0
2015-04-22,Adelaide,Australia,138.6001,-34.9167,[138.1001 -35.4167 139.1001 -34.4167],1.004,0.471,1.508,1.039,0.836,0.304,1.501,0.926,103.0,489.0
2015-04-23,Adelaide,Australia,138.6001,-34.9167,[138.1001 -35.4167 139.1001 -34.4167],1.022,0.517,1.508,1.073,0.821,0.29,1.457,0.911,109.0,491.0
2015-04-24,Adelaide,Australia,138.6001,-34.9167,[138.1001 -35.4167 139.1001 -34.4167],1.031,0.535,1.527,1.119,0.822,0.309,1.475,0.934,117.0,494.0
2015-04-25,Adelaide,Australia,138.6001,-34.9167,[138.1001 -35.4167 139.1001 -34.4167],1.022,0.541,1.527,1.109,0.782,0.279,1.489,0.926,140.0,496.0
2015-04-26,Adelaide,Australia,138.6001,-34.9167,[138.1001 -35.4167 139.1001 -34.4167],1.022,0.552,1.527,1.133,0.828,0.304,1.473,0.954,151.0,495.0
2015-04-27,Adelaide,Australia,138.6001,-34.9167,[138.1001 -35.4167 139.1001 -34.4167],1.134,0.567,1.677,1.231,0.842,0.299,1.507,0.972,144.0,499.0
2015-04-28,Adelaide,Australia,138.6001,-34.9167,[138.1001 -35.4167 139.1001 -34.4167],1.159,0.62,1.643,1.253,0.912,0.359,1.618,1.036,158.0,489.0
2015-04-29,Adelaide,Australia,138.6001,-34.9167,[138.1001 -35.4167 139.1001 -34.4167],1.159,0.63,1.889,1.331,0.927,0.343,1.679,1.04,124.0,492.0
2015-04-30,Adelaide,Australia,138.6001,-34.9167,[138.1001 -35.4167 139.1001 -34.4167],1.151,0.63,1.784,1.32,0.986,0.345,1.679,1.063,129.0,484.0
2015-05-01,Adelaide,Australia,138.6001,-34.9167,[138.1001 -35.4167 139.1001 -34.4167],1.151,0.63,1.784,1.32,1.044,0.354,1.733,1.103,129.0,530.0
2015-05-02,Adelaide,Australia,138.6001,-34.9167,[138.1001 -35.4167 139.1001 -34.4167],1.151,0.63,1.748,1.313,1.059,0.357,1.753,1.126,133.0,576.0
2015-05-03,Adelaide,Australia,138.6001,-34.9167,[138.1001 -35.4167 139.1001 -34.4167],1.134,0.597,1.743,1.24,1.125,0.393,1.845,1.171,152.0,587.0
2015-05-04,Adelaide,Australia,138.6001,-34.9167,[138.1001 -35.4167 139.1001 -34.4167],1.134,0.597,1.743,1.243,1.141,0.38,1.864,1.165,154.0,585.0
2015-05-05,Adelaide,Australia,138.6001,-34.9167,[138.1001 -35.4167 139.1001 -34.4167],1.134,0.597,1.748,1.247,1.223,0.435,1.921,1.213,155.0,579.0
2015-05-06,Adelaide,Australia,138.6001,-34.9167,[138.1001 -35.4167 139.1001 -34.4167],1.134,0.578,1.871,1.249,1.252,0.446,1.955,1.228,153.0,582.0
2015-05-07,Adelaide,Australia,138.6001,-34.9167,[138.1001 -35.4167 139.1001 -34.4167],1.134,0.578,1.871,1.249,1.247,0.466,2.009,1.268,153.0,570.0
2015-05-08,Adelaide,Australia,138.6001,-34.9167,[138.1001 -35.4167 139.1001 -34.4167],1.151,0.597,1.927,1.307,1.331,0.494,2.114,1.37,114.0,572.0
2015-05-09,Adelaide,Australia,138.6001,-34.9167,[138.1001 -35.4167 139.1001 -34.4167],1.173,0.807,1.889,1.283,1.372,0.521,2.168,1.393,139.0,572.0
2015-05-10,Adelaide,Australia,138.6001,-34.9167,[138.1001 -35.4167 139.1001 -34.4167],1.277,0.867,1.935,1.35,1.417,0.533,2.164,1.417,144.0,577.0
2015-05-11,Adelaide,Australia,138.6001,-34.9167,[138.1001 -35.4167 139.1001 -34.4167],1.277,0.85,1.927,1.335,1.378,0.52,2.135,1.406,130.0,582.0
2015-05-12,Adelaide,Australia,138.6001,-34.9167,[138.1001 -35.4167 139.1001 -34.4167],1.242,0.86,1.874,1.271,1.355,0.517,2.113,1.401,134.0,579.0
2015-05-13,Adelaide,Australia,138.6001,-34.9167,[138.1001 -35.4167 139.1001 -34.4167],1.151,0.645,1.833,1.145,1.315,0.466,2.091,1.356,138.0,578.0
2015-05-14,Adelaide,Australia,138.6001,-34.9167,[138.1001 -35.4167 139.1001 -34.4167],1.143,0.517,1.819,1.115,1.299,0.442,2.127,1.342,148.0,570.0
2015-05-15,Adelaide,Australia,138.6001,-34.9167,[138.1001 -35.4167 139.1001 -34.4167],1.131,0.517,1.819,1.119,1.339,0.503,2.138,1.385,143.0,574.0
2015-05-16,Adelaide,Australia,138.6001,-34.9167,[138.1001 -35.4167 139.1001 -34.4167],0.914,0.045,1.625,0.943,1.221,0.346,2.063,1.282,175.0,565.0
2015-05-17,Adelaide,Australia,138.6001,-34.9167,[138.1001 -35.4167 139.1001 -34.4167],0.914,0.058,1.625,0.946,1.187,0.345,2.009,1.237,171.0,567.0
2015-05-18,Adelaide,Australia,138.6001,-34.9167,[138.1001 -35.4167 139.1001 -34.4167],0.957,0.253,1.72,0.994,1.218,0.385,2.063,1.257,149.0,527.0
2015-05-19,Adelaide,Australia,138.6001,-34.9167,[138.1001 -35.4167 139.1001 -34.4167],0.996,0.325,1.777,1.043,1.202,0.414,2.018,1.271,173.0,537.0
2015-05-20,Adelaide,Australia,138.6001,-34.9167,[138.1001 -35.4167 139.1001 -34.4167],0.941,0.08,1.728,0.987,1.143,0.312,1.933,1.223,193.0,534.0
2015-05-21,Adelaide,Australia,138.6001,-34.9167,[138.1001 -35.4167 139.1001 -34.4167],0.891,-0.013,1.625,0.923,1.065,0.248,1.913,1.183,207.0,528.0
2015-05-22,Adelaide,Australia,138.6001,-34.9167,[138.1001 -35.4167 139.1001 -34.4167],0.891,-0.013,1.642,0.931,1.001,0.213,1.893,1.154,217.0,531.0
2015-05-23,Adelaide,Australia,138.6001,-34.9167,[138.1001 -35.4167 139.1001 -34.4167],0.891,-0.026,1.625,0.919,0.991,0.211,1.836,1.075,222.0,521.0
2015-05-24,Adelaide,Australia,138.6001,-34.9167,[138.1001 -35.4167 139.1001 -34.4167],0.715,-0.085,1.571,0.796,1.046,0.29,1.939,1.155,189.0,523.0
2015-05-25,Adelaide,Australia,138.6001,-34.9167,[138.1001 -35.4167 139.1001 -34.4167],0.788,-0.056,1.481,0.796,1.065,0.314,1.955,1.193,175.0,523.0
2015-05-26,Adelaide,Australia,138.6001,-34.9167,[138.1001 -35.4167 139.1001 -34.4167],0.876,-0.054,1.595,0.936,1.106,0.3,2.008,1.235,205.0,530.0
2015-05-27,Adelaide,Australia,138.6001,-34.9167,[138.1001 -35.4167 139.1001 -34.4167],0.813,-0.056,1.595,0.887,1.08,0.28,1.978,1.236,208.0,539.0
2015-05-28,Adelaide,Australia,138.6001,-34.9167,[138.1001 -35.4167 139.1001 -34.4167],0.802,-0.075,1.595,0.874,1.174,0.35,2.132,1.308,210.0,538.0
2015-05-29,Adelaide,Australia,138.6001,-34.9167,[138.1001 -35.4167 139.1001 -34.4167],0.927,-0.054,1.701,1.033,1.267,0.369,2.224,1.411,221.0,539.0
2015-05-30,Adelaide,Australia,138.6001,-34.9167,[138.1001 -35.4167 139.1001 -34.4167],0.927,-0.04,1.746,1.038,1.195,0.358,2.179,1.368,242.0,531.0
2015-05-31,Adelaide,Australia,138.6001,-34.9167,[138.1001 -35.4167 139.1001 -34.4167],1.055,0.157,1.978,1.184,1.311,0.526,2.274,1.498,210.0,536.0
2015-06-01,Adelaide,Australia,138.6001,-34.9167,[138.1001 -35.4167 139.1001 -34.4167],1.143,0.245,1.978,1.22,1.409,0.563,2.34,1.549,213.0,526.0
2015-06-02,Adelaide,Australia,138.6001,-34.9167,[138.1001 -35.4167 139.1001 -34.4167],1.143,0.245,1.978,1.22,1.428,0.552,2.406,1.556,213.0,574.0
2015-06-03,Adelaide,Australia,138.6001,-34.9167,[138.1001 -35.4167 139.1001 -34.4167],1.35,0.296,2.025,1.355,1.462,0.579,2.342,1.59,212.0,583.0
2015-06-04,Adelaide,Australia,138.6001,-34.9167,[138.1001 -35.4167 139.1001 -34.4167],1.441,0.536,2.143,1.482,1.475,0.616,2.351,1.598,218.0,595.0
2015-06-05,Adelaide,Australia,138.6001,-34.9167,[138.1001 -35.4167 139.1001 -34.4167],1.555,0.794,2.375,1.636,1.52,0.68,2.41,1.642,222.0,593.0
2015-06-06,Adelaide,Australia,138.6001,-34.9167,[138.1001 -35.4167 139.1001 -34.4167],1.555,0.798,2.375,1.652,1.53,0.715,2.423,1.668,212.0,587.0
2015-06-07,Adelaide,Australia,138.6001,-34.9167,[138.1001 -35.4167 139.1001 -34.4167],1.575,0.802,2.384,1.681,1.537,0.704,2.408,1.66,207.0,591.0
2015-06-08,Adelaide,Australia,138.6001,-34.9167,[138.1001 -35.4167 139.1001 -34.4167],1.575,0.802,2.384,1.681,1.516,0.67,2.362,1.618,207.0,583.0
2015-06-09,Adelaide,Australia,138.6001,-34.9167,[138.1001 -35.4167 139.1001 -34.4167],1.692,0.798,2.575,1.729,1.456,0.595,2.33,1.558,193.0,585.0
2015-06-10,Adelaide,Australia,138.6001,-34.9167,[138.1001 -35.4167 139.1001 -34.4167],1.696,0.798,2.565,1.697,1.489,0.644,2.345,1.592,166.0,583.0
2015-06-11,Adelaide,Australia,138.6001,-34.9167,[138.1001 -35.4167 139.1001 -34.4167],1.736,0.802,2.885,1.78,1.501,0.652,2.418,1.61,156.0,586.0